Milwaukee, WI

7:08 PM CDT on March 30, 2017 (GMT -0500)
Gen Mitchell International

Weather History for KMKE - June, 2013

Change the Weather History Date:

Monday, June 24, 2013

  Actual Average Record
Temperature  
Mean Temperature 75 °F 69 °F  
Max Temperature 81 °F 78 °F 97 °F (1937)
Min Temperature 69 °F 60 °F 44 °F (1961)
Degree Days  
Heating Degree Days 0 1  
Month to date heating degree days 87 78  
Since 1 June heating degree days 87 78  
Since 1 July heating degree days 6829 6888  
Cooling Degree Days 10 5  
Month to date cooling degree days 66 83  
Year to date cooling degree days 105 113  
Since 1 June cooling degree days 66 83  
Growing Degree Days 26 (Base 50)    
Moisture  
Dew Point 66 °F    
Average Humidity 76    
Maximum Humidity 93    
Minimum Humidity 58    
Precipitation  
Precipitation 0.02 in 0.13 in 2.55 in (1904)
Month to date precipitation 3.67 3.10  
Year to date precipitation 23.18 15.74  
Snow  
Snow 0.00 in 0.00 in 0.00 in ()
Month to date snowfall 0.0 0.0  
Since 1 June snowfall 0.0 0.0  
Since 1 July snowfall 45.0 46.9  
Snow Depth 0.00 in    
Sea Level Pressure  
Sea Level Pressure 29.94 in    
Wind  
Wind Speed 8 mph (SW)    
Max Wind Speed 20 mph    
Max Gust Speed 25 mph    
Visibility 10 miles    
Events Rain    
T = Trace of Precipitation, MM = Missing Value Source: NWS Daily Summary

Daily Weather History Graph

Daily Weather History Graph

Search for Another Location

Airport or City:

Trip Planner

Search our weather history database for the weather conditions in past years. The results will help you decide how hot, cold, wet, or windy it might be!

Date:

Astronomy

Jun. 24, 2013 Rise Set
Actual Time 5:13 AM CDT 8:34 PM CDT
Civil Twilight 4:38 AM CDT 9:09 PM CDT
Nautical Twilight 3:52 AM CDT 9:55 PM CDT
Astronomical Twilight 2:55 AM CDT 10:52 PM CDT
Moon 9:33 PM CDT (6/24) 6:43 AM CDT (6/24)
Length of Visible Light 16h 31m
Length of Day
15h 21m
Full, 98% of the Moon is Illuminated
Jun 24
Full
Jun 29
Last Quarter
Jul 8
New
Jul 15
First Quarter
Jul 22
Full

Hourly Weather History & Observations

Time (CDT) Temp. Heat Index Dew Point Humidity Pressure Visibility Wind Dir Wind Speed Gust Speed Precip Events Conditions
12:52 AM 73.0 °F - 66.9 °F 81% 29.95 in 10.0 mi SW 10.4 mph - N/A   Scattered Clouds
1:52 AM 72.0 °F - 68.0 °F 87% 29.95 in 10.0 mi SSW 8.1 mph - N/A   Mostly Cloudy
2:52 AM 71.1 °F - 68.0 °F 90% 29.94 in 10.0 mi SSW 8.1 mph - N/A   Mostly Cloudy
3:52 AM 71.1 °F - 68.0 °F 90% 29.95 in 9.0 mi WSW 5.8 mph - N/A   Mostly Cloudy
4:52 AM 71.1 °F - 66.9 °F 87% 29.96 in 7.0 mi SW 5.8 mph - N/A   Partly Cloudy
5:52 AM 71.1 °F - 66.9 °F 87% 29.97 in 9.0 mi SSW 5.8 mph - N/A   Mostly Cloudy
6:52 AM 72.0 °F - 66.0 °F 81% 29.98 in 10.0 mi SSW 8.1 mph - N/A   Overcast
7:52 AM 73.0 °F - 66.0 °F 79% 29.99 in 10.0 mi SW 8.1 mph - N/A   Overcast
8:52 AM 73.0 °F - 66.0 °F 79% 30.01 in 10.0 mi WSW 16.1 mph 24.2 mph N/A   Overcast
9:52 AM 73.9 °F - 66.0 °F 76% 30.00 in 10.0 mi WSW 11.5 mph 20.7 mph N/A   Overcast
10:52 AM 75.0 °F - 64.0 °F 69% 29.99 in 10.0 mi WSW 10.4 mph - N/A   Overcast
11:52 AM 78.1 °F - 64.0 °F 62% 29.99 in 10.0 mi SW 11.5 mph 20.7 mph N/A   Mostly Cloudy
12:52 PM 80.1 °F 81.9 °F 64.9 °F 60% 29.96 in 10.0 mi SW 10.4 mph - N/A   Mostly Cloudy
1:52 PM 79.0 °F - 64.0 °F 60% 29.96 in 10.0 mi West 12.7 mph 19.6 mph N/A   Mostly Cloudy
2:52 PM 79.0 °F - 66.0 °F 64% 29.93 in 10.0 mi SW 8.1 mph - N/A   Mostly Cloudy
3:52 PM 81.0 °F 82.7 °F 64.9 °F 58% 29.93 in 10.0 mi SSW 12.7 mph - N/A   Mostly Cloudy
4:52 PM 79.0 °F - 66.9 °F 66% 29.92 in 10.0 mi SW 11.5 mph - N/A   Mostly Cloudy
5:52 PM 78.1 °F - 68.0 °F 71% 29.90 in 10.0 mi SSE 8.1 mph - N/A   Mostly Cloudy
6:52 PM 73.9 °F - 64.9 °F 73% 29.89 in 10.0 mi SE 6.9 mph - N/A   Mostly Cloudy
7:52 PM 72.0 °F - 64.0 °F 76% 29.83 in 10.0 mi East 4.6 mph - N/A   Mostly Cloudy
8:52 PM 72.0 °F - 64.9 °F 78% 29.85 in 10.0 mi ENE 5.8 mph - N/A   Overcast
9:52 PM 72.0 °F - 66.9 °F 84% 29.88 in 10.0 mi Calm Calm - 0.02 in Rain Light Rain
10:52 PM 72.0 °F - 68.0 °F 87% 29.91 in 10.0 mi SW 4.6 mph - 0.00 in   Mostly Cloudy
11:52 PM 72.0 °F - 69.1 °F 91% 29.90 in 10.0 mi SSW 10.4 mph - N/A   Mostly Cloudy